Weather in Dzhalil

Russia / Republic of Tatarstan     55°01′18″N   52°44′20″E
temp.,
°C
wind,
m/s
gust,
m/s
humid.,
%
clouds,
%
prec.,
mm/h
press.,
hPa
HPBL,
m
4 december, sat
sat400:00+1ssw51298100 0.1 1014470
03:00+2ssw71597100 0.1 1013534
06:00+2ssw91894100 0.1 1012601
09:00+2ssw102179100 0.1 1011678
12:00+3ssw122385100 0.0 1009836
15:00+2ssw102096100 0.8 1009932
18:00+1sw81697100 2.6 1009883
21:00+1sw61198100 4.4 1010664
5 december, sun
sun500:00−1wsw4992100 0.4 1011530
03:00−1wsw4893100 0.7 1012569
06:00−2w4890100 0.1 1012586
09:00−3w489245 0.1 1015546
12:00−3w578095 0.0 1015829
15:00−3wnw4783100 0.1 1017821
18:00−3w4681100 0.1 1019665
21:00−4wnw3684100 0.1 1019561
6 december, mon
mon600:00−4wnw3585100 0.0 1020543
03:00−5nnw358884 0.1 1022448
06:00−6nnw348832 0.0 1023369
09:00−7nnw238361 0.0 1025352
12:00−7nnw337771 0.0 1026426
15:00−8n238042 0.0 1027310
18:00−8ne228185 0.0 1029210
21:00−9ne238056 0.0 1030202
7 december, tue
tue700:00−9ene23815 0.0 1031172
03:00−9ene228097 0.0 1032158
06:00−10ene238167 0.0 1033154
09:00−9e3480100 0.0 1034206
12:00−8e3474100 0.0 1034294
15:00−8ese4679100 0.0 1034250
18:00−8ese488331 0.0 1033242
21:00−7ese5979100 0.0 1033255
8 december, wed
wed800:00−6se51171100 0.0 1031293
03:00−5sse51391100 0.3 1029365
06:00−3s61693100 1.2 1027419
09:000ssw71689100 1.4 1027412
12:00+1ssw71784100 0.4 1027441
15:00+1s71683100 0.4 1027391
18:000s61582100 0.0 1027389
21:000s51481100 0.0 1027394